Regional Weather Roundup
Issued by NWS

Home | Current Version | Previous Version | Text Only | Print | Product List | Glossary On
Versions: 1 2 3 4 5 6 7 8 9 10 11 12 13 14 15 16 17 18 19 20 21 22 23 24 25 26 27 28 29 30 31 32 33 34 35 36 37 38 39 40 41 42 43 44 45 46 47 48 49 50
000
ASUS44 KJAN 250310
RWRMS

MISSISSIPPI HOURLY WEATHER ROUNDUP
NATIONAL WEATHER SERVICE JACKSON MS
900 PM CST WED DEC 24 2014

NOTE: "FAIR: INDICATES FEW OR NO CLOUDS BELOW 12,000 FEET WITH NO
SIGNIFICANT WEATHER AND/OR OBSTRUCTIONS TO VISIBILITY.

MSZ001>002-007>008-010>013-018>021-025>028-034>036-250400-
NORTHWEST MISSISSIPPI

CITY           SKY/WX    TMP DP  RH WIND       PRES   REMARKS
CLARKSDALE     CLOUDY    43  37  81 W10       30.02R
CLEVELAND      CLOUDY    43  38  83 W9        30.02R
GREENWOOD      CLEAR     43  36  76 VRB3      30.02R
GREENVILLE     MOCLDY    43  36  76 W8        30.03R
GRENADA        FAIR      39  36  87 CALM      30.01R
OLIVE BRANCH   CLOUDY    39  39 100 SW8       29.97R WCI  34
OXFORD         CLOUDY    41  34  75 W7        30.00R
TUNICA         CLOUDY    43  37  81 SW7       30.00R
$$

MSZ003>006-009-014>017-022>024-029>033-037>039-250400-
NORTHEAST MISSISSIPPI

CITY           SKY/WX    TMP DP  RH WIND       PRES   REMARKS
COLUMBUS AFB   CLOUDY    41  36  83 W5        30.00R
CORINTH        MOCLDY    43  37  81 SW5       29.95R
GOLDN TRIANGLE CLOUDY    43  36  75 W3        29.99R
STARKVILLE     CLOUDY    41  37  87 CALM      30.01R
TUPELO         CLOUDY    44  35  70 W8        29.97R
$$

MSZ040-058-250400-
CENTRAL MISSISSIPPI

CITY           SKY/WX    TMP DP  RH WIND       PRES   REMARKS
JACKSON INTL   CLOUDY    44  36  73 W6        30.04R
JACKSON HAWKNS CLOUDY    44  36  73 W7        30.04R
MERIDIAN KEY   CLEAR     40  35  83 SW5       30.04R
MERIDIAN NAS   PTCLDY    41  34  76 W5        30.03R
RAYMOND        MOCLDY    43  39  87 W10       30.06R
VICKSBURG      CLEAR     42  34  73 W5        30.08R
$$

MSZ059>079-250400-
SOUTH MISSISSIPPI

CITY           SKY/WX    TMP DP  RH WIND       PRES   REMARKS
HATTIESBURG    CLEAR     41  36  82 CALM      30.08R
MCCOMB         CLEAR     40  35  83 W5        30.07R
NATCHEZ        CLEAR     43  34  70 W3        30.09R
PINE BELT      CLEAR     37  34  87 CALM      30.06R
$$

MSZ080>082-250400-
COASTAL MISSISSIPPI

CITY           SKY/WX    TMP DP  RH WIND       PRES   REMARKS
BAY ST LOUIS   PTCLDY    45  30  57 NW5       30.07R
BILOXI         MOCLDY    47  36  65 NW6       30.09R
PASCAGOULA     CLOUDY    46  35  65 NW6       30.08R
GULFPORT       PTCLDY    45  35  68 W3        30.09R
$$



USA.gov is the U.S. government's official web portal to all federal, state and local government web resources and services.